The World's Largest Family-Owned, Public-Use Airport

Web Cams

See the Cable Airport Web Cams

Learn more

Photo Gallery

View images from all over Cable Airport

Learn more

Event Calendar

Calendar of upcoming events such as the Cable airshow, fly-ins, car shows and fundraisers

Learn more

Cable Air Faire 2015

Cable Air Faire 2015
Cable Air Faire 2015 celebrates its 40th annual event. We are going to dedicate this event to Cable Airport as it celebrates its 70th anniversary. Put your imagination to work as we go back in time 70 years . . . The Southern California home front during World War II supported the war effort in many ways, including a wide range of volunteer e [...]

We had A Great Cable Air Show 2014

We had A Great Cable Air Show 2014
Great Weather, Great Program, Great Sponsors, Great Volunteers, Great Crowd!!!! ‘Nuff said, please click on this link to see pictures and videos of the air show….hot off the press!!! See story here

Slow Down

Slow Down
For safety’s sake, please slow down when driving on the airport.  

Upcoming Events

  1. Antique Aircraft Display Weekend

    November 2 @ 8:00 am - 5:00 pm
  2. Antique Aircraft Display Day

    November 3 @ 8:00 am - 5:00 pm
  3. 2015 Cable Air Faire

    January 10, 2015 @ 8:00 am - January 11, 2015 @ 5:00 pm

Avgas

Currently: $5.42 gal. for 100LL Self Serve.
Jet A also available! Currently: $4.59 gal.
Self serve 24 Hours a day!
Mobile fuel service also available.

NOTICE: The fuel prices listed above are subject to change without notice

Aviation Weather

METAR
KONT 302353Z 25013G19KT 10SM BKN180 BKN250 24/13 A2993 RMK AO2 SLP124 VIRGA DSNT SW T02440128 10300 20228 55003
KONT 302253Z 25009KT 10SM SCT180 BKN250 28/09 A2992 RMK AO2 SLP117 VIRGA DSNT S AND W T02830089